Regional Weather Roundup
Issued by NWS

Home | Current Version | Previous Version | Text Only | Print | Product List | Glossary On
Versions: 1 2 3 4 5 6 7 8 9 10 11 12 13 14 15 16 17 18 19 20 21 22 23 24 25 26 27 28 29 30 31 32 33 34 35 36 37 38 39 40 41 42 43 44 45 46 47 48 49 50
000
ASHW40 PHFO 280312
RWRHI

WEATHER ROUNDUP FOR HAWAII
NATIONAL WEATHER SERVICE HONOLULU HI
500 PM HST SAT AUG 27 2016

THIS IS AN AUTOMATED REPORT THAT HAS NOT BEEN QUALITY CONTROLLED.

NOTE..."FAIR" INDICATES FEW OR NO CLOUDS BELOW 12,000 FEET WITH NO
SIGNIFICANT WEATHER AND/OR OBSTRUCTIONS TO VISIBILITY.

* - THESE SITES REPORT LIMITED FIELDS

HIZ001>004-280400-
KAUAI-NIIHAU-

CITY           SKY/WX    TMP DP  RH WIND       PRES   REMARKS
LIHUE APT      MOSUNNY   82  69  64 NE14      29.95F
PORT ALLEN*      N/A     82 N/A N/A NE22        N/A
POIPU*           N/A     82 N/A N/A NE8G16      N/A
PRINCEVILLE*     N/A     81 N/A N/A NE7         N/A
KOKOLE POINT*  NOT AVBL
MOLOAA DAIRY*    N/A     82  72  69 E3G10       N/A
WAIMEA HTS*    NOT AVBL
PUU OPAE*      NOT AVBL
PUU LUA*       NOT AVBL
MAKAHA RIDGE*  NOT AVBL
$$

HIZ005>011-280400-
OAHU-

CITY           SKY/WX    TMP DP  RH WIND       PRES   REMARKS
HONOLULU       PTSUNNY   84  66  54 NE15      29.91R
KALAELOA       MOSUNNY   84  67  56 NE9G20    29.92S
KANEOHE MCB    CLOUDY    80  71  74 NE12      29.91R
WHEELER FIELD  FAIR      75  71  86 NE8       29.95S
BELLOWS*       NOT AVBL
KAHUKU*        NOT AVBL
WHEELER*       NOT AVBL
WAIANAE HARBOR NOT AVBL
DILLINGHAM*      N/A     82  68  61 MISG        N/A
KAHUKU TRN*      N/A     75  68  78 N9G18       N/A
KAWAILOA*        N/A     73  68  83 E12G20      N/A
KII*             N/A     81  72  74 E15         N/A
MAKUA RANGE*     N/A     82  66  57 NW10G24     N/A
OAHU FOREST NW NOT AVBL
SCHOFIELD BRK*   N/A     81  73  78 MISG        N/A
SCHOFIELD S*   NOT AVBL
WAIANAE VLY*   NOT AVBL
KUAOKALA*      NOT AVBL
HONOULIUULI*   NOT AVBL
MOKUOLOE IS*   NOT AVBL
PALEHUA*       NOT AVBL
WAIAWA PHB*    NOT AVBL
$$

HIZ012>013-280400-
MOLOKAI-

CITY           SKY/WX    TMP DP  RH WIND       PRES   REMARKS
MOLOKAI AIRPT  LGT RAIN  76  71  85 N12G20    29.92S
KALAUPAPA      NOT AVBL
MAKAPULAPAI*   NOT AVBL
MOLOKAI 1*     NOT AVBL
PUU ALII*      NOT AVBL
$$

HIZ016-280400-
KAHOOLAWE-

CITY           SKY/WX    TMP DP  RH WIND       PRES   REMARKS
KAHOOLAWE*     NOT AVBL
HAKIOAWA*      NOT AVBL
HONOKANAIA*      N/A     79  74  84 E12G22    29.84S
KANELOA*         N/A     75  72  88 E10G18    29.97F
KEALIALALO*    NOT AVBL
LUA MAKIKA*    NOT AVBL
$$

HIZ014>015-280400-
LANAI-

CITY           SKY/WX    TMP DP  RH WIND       PRES   REMARKS
LANAI CITY     FAIR      77  68  73 NE18G28   29.95S
LANAI 1*       NOT AVBL
$$

HIZ017>028-280400-
MAUI-

CITY           SKY/WX    TMP DP  RH WIND       PRES   REMARKS
KAHULUI        PTSUNNY   82  70  66 N15       29.91R
KAPALUA-W MAUI PTSUNNY   77  70  78 NE15      29.92
HANA AIRPORT     N/A     75  73  94 NE12      29.95R
HANA*            N/A     75 N/A N/A SW2G8       N/A
HALEAKALA SUMM   N/A     50  50 100 N10         N/A
MAALAEA BAY*   NOT AVBL
HALEAKALA*     NOT AVBL
KAUPO GAP*     NOT AVBL
KULA 1*          N/A     60  60 100 NW3         N/A
$$

HIZ023>026-280400-
BIG ISLAND OF HAWAII COAST AND LOWER SLOPES-

CITY           SKY/WX    TMP DP  RH WIND       PRES   REMARKS
KAILUA KONA    MOSUNNY   85  72  65 S12       29.85S HX  91
HILO           PTSUNNY   82  70  66 NE9       29.90S
HONOKAA*         N/A     75 N/A N/A VRB1        N/A
KAWAIHAE MWT*    N/A     86 N/A N/A W12         N/A
KAWAIHAE*      NOT AVBL
SOUTH POINT*     N/A     77 N/A N/A N13         N/A
UPOLU AIRPORT* NOT AVBL
KAMUELA*       MOCLDY    75  64  69 NE13      30.01R
HAKALAU*         N/A     58  57  96 NE5G12      N/A
KALOKO-HONOKO* NOT AVBL
PALI 2*          N/A     72  63  73 S13G20      N/A
KEALAKOMO*       N/A     82  68  61 NE16G24     N/A
KAUPULEHU*     NOT AVBL
KAPAPALA*        N/A     74  69  85 CALM        N/A
LOWER KAHUKU*  NOT AVBL
PUHE CS*       NOT AVBL
PUHO CS*       NOT AVBL
PTA KEAMUKU*     N/A     73  63  68 CALM        N/A
WAIKOLOA*      NOT AVBL
$$

HIZ027>028-280400-
BIG ISLAND OF HAWAII INTERIOR AND SUMMMITS-

CITY           SKY/WX    TMP DP  RH WIND       PRES   REMARKS
BRADSHAW FIELD MOSUNNY   65  57  74 W9G16     30.23R
MK VISITOR CEN   N/A     52  48  87 E1          N/A
MAUNA KEA*       N/A     41  23  48 CALM        N/A
MAUNA LOA*       N/A    N/A N/A N/A MISG        N/A
MAUNA LOA 1*   NOT AVBL
PTA KIPUKA*      N/A     64  61  88 VRB7G15     N/A
PTA RANGE 17*    N/A    N/A N/A N/A W7G15       N/A
PTA WEST*        N/A     68  63  83 NW8G15      N/A
NENE CABIN*    NOT AVBL
AHUMOA*        NOT AVBL
PTA PORTABLE*  NOT AVBL
PUU MALI*        N/A     55  55 100 E13         N/A
$$

HIC003-280400-
NORTHWEST ISLANDS-

CITY           SKY/WX    TMP DP  RH WIND       PRES   REMARKS
MIDWAY ISLAND  CLOUDY    81  73  78 NE13      29.98S
MIDWAY NOS*    NOT AVBL
FRENCH FRIGATE NOT AVBL
$$

PHZ110>124-180-280400-
BUOY REPORTS

STATION/POSITION TIME  TEMP    WIND        PRES    WAVE   SWELL
                       AIR SEA DIR/SP/G            HT/PER HT/DIR
                 (UTC) (F)     (DEG/KT/KT) (MB)    (FT/S) (FT/D)
BUOY 51001       NOT AVBL
BUOY 51101       0250   80 82   70/ 16/ 17 1015.4F   5/ 7   3/170
BUOY 51100       NOT AVBL
BUOY 51002       NOT AVBL
BUOY 51003       0250   79 83   60/ 10/ 14 1011.7F   5/15   5/170
BUOY 51004       0250   80 82   40/ 12/ 16 1010.9R   6/ 8   7/ 90
BARBERS PT BUOY  NOT AVBL
WAIMEA BAY BUOY  0204      81                N/A     4/ 6
KAILUA BAY BUOY  0211      81                N/A     5/ 8   2/140
LANAI BUOY       0215      82                N/A     2/13   2/210
BARBERS PT 2     NOT AVBL
PAUWELA MAUI     0209      81                N/A     5/ 7
HILO             0212      82                N/A     4/ 7   2/140
KANEOHE BAY BUOY 0206      80                N/A     5/ 6
HANALEI KAUAI    NOT AVBL
KAHULUI HARBOR   0200   77 82   20/ 13/ 16 1012.7F
HONOLULU HARBOR  0200   82 82   60/ 10/ 15 1013.3F
KILO NALU        NOT AVBL
HILO HARBOR      0200   82 82   30/ 11/ 12 1012.0S
MOKUOLOE         0200   81 83   90/ 12/ 15   N/A
NAWILIWILI       0200   78 82   70/ 13/ 15 1014.0F
WHOTS BUOY       NOT AVBL
BUOY 51028       NOT AVBL
$$

......................KEY........................................
  SKY/WX - SKY CONDITIONS/PRESENT WEATHER
  TMP    - TEMPERATURE IN FAHRENHEIT
  DWPT   - DEWPOINT IN FAHRENHEIT
  RH     - RELATIVE HUMIDITY IN PERCENT
  WIND   - DIRECTION AND SPEED /MPH FOR ISLANDS...KTS FOR BUOYS/
  PRES   - MEAN SEA LEVEL PRESSURE IN INCHES OF HG
  VSB    - VISIBILITY IN MILES
  HX     - HEAT INDEX
  WCI    - WIND CHILL INDEX
  VRB    - VARIABLE WIND DIRECTION
  N/A    - NOT AVAILABLE




USA.gov is the U.S. government's official web portal to all federal, state and local government web resources and services.